User: anonymous   Login
Location: Theydon Bois
(51.6750°N, 0.1050°E)
Time: 20:11:13
(UTC+00:00)
Language:

Cosmos 1766 Rocket - Orbit

View from above orbital plane
View from above orbital plane
View from above satellite
View from above satellite

Ground track
Ground track

The orbit data is extracted from the following two-line orbital elements,

1 16882U 86055B   18048.94944559 +.00000079 +00000-0 +68047-5 0  9995
2 16882 082.5232 003.4738 0018875 320.6411 101.1977 14.83151838683229
Epoch (UTC): 17 February 2018 22:47:12
Eccentricity: 0.0018875
inclination: 82.5232°
perigee height: 606 km
apogee height: 632 km
right ascension of ascending node: 3.4738°
argument of perigee: 320.6411°
revolutions per day: 14.83151838
mean anomaly at epoch: 101.1977°
orbit number at epoch: 68322

The dashed part of the orbit path shows where the satellite is in the earth's shadow,  

DLR